Showing default

CYGFM07, 41890

Orbit data source: Space-Track

CYGFM07, 41890 is an American payload satellite in LEO that was launched on Thu, 15 Dec 2016 UTC via a PEGASUS XL launch vehicle from the Pegasus Launch, Eastern Range Air Space (ERAS). Payload-class satellites include a variety of spacecraft equipped with specific instruments for various scientific and technological missions. These include communications satellites like Starlink; space stations such as the ISS; scientific satellites like the Hubble; Earth observation satellites from companies like Planet Labs, Umbra, and HawkEye 360; GPS; miniature CubeSats for education and research; and military/defense satellites.

Loading next visibility...
Identifier
41890, 2016-078G
Orbit
LEO
Last TLE update
11 hours ago
Origin
Manufacturer
SST-US
Mission
Extended mission Civil Science
Bus & Motor
CYGNSS, Unknown motor
Mass
29 kg wet, 29 kg dry
Launch date (UTC)
2016-12-15 (9 years ago)
Launch vehicle
PEGASUS XL
Launch site
Pegasus Launch, Eastern Range Air Space (ERAS)
Object type
Payload
Rocket body
Debris
Shape & HBR
Half Hex Cyl + 2 Pan, 1.7 m
Radar Cross Section
0.450 m², Medium (>0.1 m² and < 1m²)

Expand to show TLE details & history

TLE from 11 hours ago
0 CYGFM07
1 41890U 16078G   25182.76440853  .00011611  00000-0  25618-3 0  9994
2 41890  34.9497  10.0062 0007860 119.9667 240.1834 15.43010109474561
Epoch: 2025-07-01T18:20Z
TLE epoch observation values (Epoch: 2025-07-01T18:20:44.897Z)
Latitude
Longitude
174.76395°
Altitude
438.79 km
Speed
7.649 km/s
True Right ascension
00h 40m 01s
True Declination
0° 00' 00"
Sunlit
Object was in daylight at epoch
Visualization orbit readout
Latitude
34.85974°
Longitude
-105.91467°
Altitude
433.675 km
Speed
7.659 km/s
Apparent Right ascension
05h 38m 06s
Apparent Declination
-1° 05' 04"
Sunlit
Object is in daylight
Visualization observer readout
Local Sidereal Time
17:16:09
Azimuth
351.292° N
Elevation
-50.849°
Doppler factor
1
Orbital elements
Apogee altitude
445.877 km
Perigee altitude
435.158 km
Semi-major axis
6,818.655 km
Eccentricity
0.00079
Inclination
34.9497°
RAAN
10.0062°
Arg. of periapsis
119.9667°
True anomaly
Unknown
Mean anomaly
240.1834°
Eccentric anomaly
Unknown
Mean motion
3.85474 °/min
Orbital period
93.39 mins
BSTAR
0.00025618
Loading maneuver chart data...
Loading SW <> Apogee altitude chart data...
Loading historical data...
Loading historical data...
Loading historical data...
Loading historical data...
Loading historical data...
Loading historical data...
Loading historical data...

CYGFM07 Visibility forecast

Observer location: undefined°, undefined°

Span
Click to sort rows by Start time (UTC) header in descending order
Start Az.
Max El. time (UTC)
Max El. Az.
Max El.
End time (UTC)
End Az.
4 mins2025-07-02 16:19:33.853Z205.648° SW2025-07-02 16:21:33.853Z170.377° S17.136°2025-07-02 16:23:33.853Z127.527° SE
4 mins2025-07-02 17:58:33.853Z220.945° SW2025-07-02 17:59:33.853Z192.378° SSW28.07°2025-07-02 18:02:33.853Z113.925° SE
4 mins2025-07-02 19:36:33.853Z233.484° WSW2025-07-02 19:38:33.853Z174.809° S24.841°2025-07-02 19:40:33.853Z134.223° SE
|